Regional Weather Roundup
Issued by NWS

Home | Current Version | Previous Version | Graphics & Text | Print | Product List | Glossary On
Versions: 1 2 3 4 5 6 7 8 9 10 11 12 13 14 15 16 17 18 19 20 21 22 23 24 25 26 27 28 29 30 31 32 33 34 35 36 37 38 39 40 41 42 43 44 45 46 47 48 49 50
000
ASUS43 KDMX 261503
RWRIA

WEATHER ROUNDUP FOR IOWA
NATIONAL WEATHER SERVICE DES MOINES IA
1000 AM CDT THU MAY 26 2016

NOTE: "FAIR" INDICATES FEW OR NO CLOUDS BELOW 12,000 FEET WITH NO
SIGNIFICANT WEATHER AND/OR OBSTRUCTIONS TO VISIBILITY.

* - THESE STATIONS ARE NOT NWS STATIONS...THUS NOT UNDER NWS
QUALITY CONTROL.  THEY ALSO DO NOT REPORT WEATHER SUCH
AS PRECIPITATION OR FOG.

IAZ001>003-012>014-020>022-031>034-043>046-261600-
   NORTHWEST IOWA

CITY           SKY/WX    TMP DP  RH WIND       PRES   REMARKS
CARROLL *      SUNNY     70  61  73 S6        29.88F
CHEROKEE *     SUNNY     67  63  86 SW7       29.89F
DENISON *      SUNNY     68  59  73 CALM      29.86F
LE MARS *      SUNNY     68  59  73 S7        29.89F
ORANGE CITY *  SUNNY     66  54  63 CALM      29.88S
SHELDON *      SUNNY     68  54  60 N6        29.87S
SIOUX CITY     SUNNY     71  61  70 VRB3      29.88F
SPENCER        SUNNY     67  57  70 CALM      29.88F
STORM LAKE *   SUNNY     68  59  73 W9        29.90S
$$

IAZ055>058-069>071-079>083-090>094-261600-
   SOUTHWEST IOWA

CITY           SKY/WX    TMP DP  RH WIND       PRES   REMARKS
ATLANTIC *     SUNNY     72  63  73 CALM      29.89R
AUDUBON *      SUNNY     70  63  78 CALM      29.89F
CLARINDA *       N/A     75  64  69 MISG      29.89S
COUNCIL BLFS * SUNNY     72  59  64 SE5       29.88S
CRESTON *      SUNNY     73  64  73 SE10      29.91R
HARLAN  *      SUNNY     72  61  68 VRB5      29.91S
LAMONI         SUNNY     72  66  81 SE8       29.90R
RED OAK *      SUNNY     73  64  73 VRB5      29.87F
SHENANDOAH *   SUNNY     77  64  65 VRB5      29.87S
$$

IAZ047>049-059>061-072>074-084-261600-
   CENTRAL IOWA

CITY           SKY/WX    TMP DP  RH WIND       PRES   REMARKS
AMES           SUNNY     70  60  70 S9        29.88F
ANKENY *       SUNNY     70  63  78 VRB6      29.89R
BOONE *        SUNNY     68  63  83 S7        29.88S
CHARITON *     CLOUDY    72  63  73 SE8       29.91R
DES MOINES     MOSUNNY   71  61  70 SE8       29.89S
GRINNELL*      CLOUDY    66  59  77 SE6       29.91S
KNOXVILLE *    PTSUNNY   68  59  73 E7        29.90R
NEWTON *       CLOUDY    66  63  88 SE8       29.90S
PERRY *          N/A     70  64  83 SE8       29.88F
$$

IAZ004>006-015-016-023>025-035-036-261600-
   NORTH CENTRAL IOWA

CITY           SKY/WX    TMP DP  RH WIND       PRES   REMARKS
ALGONA *       SUNNY     68  59  73 W13       29.89S
CLARION *      SUNNY     70  63  78 SW12      29.89R
ESTHERVILLE    SUNNY     67  58  72 W10       29.88S
FORT DODGE *   SUNNY     70  59  68 SW7       29.90S
MASON CITY     SUNNY     69  61  75 SW10      29.89R
FOREST CITY *  SUNNY     66  59  77 SW8       29.88S
WEBSTER CITY * SUNNY     70  63  78 SW10      29.87S
IOWA FALLS *     N/A     72  63  73 S8        29.90R
$$

IAZ007>011-017>019-026>030-037>042-050>054-066-261600-
   NORTHEAST IOWA

CITY           SKY/WX    TMP DP  RH WIND       PRES   REMARKS
CEDAR RAPIDS   CLOUDY    69  63  81 S8        29.91R
CHARLES CITY * SUNNY     68  63  83 VRB7      29.88R
CLINTON *      CLOUDY    68  61  78 SE3       29.92R
DECORAH *      SUNNY     66  63  88 VRB7      29.85S
DUBUQUE        SUNNY     70  60  70 SW6       29.90R
MONTICELLO *   MOSUNNY   72  59  64 S8        29.89S
OELWEIN *      SUNNY     68  61  77 S9        29.89R
WATERLOO       SUNNY     70  60  70 SW7       29.88R
$$

IAZ064-065-067-068-078-261600-
   EAST CENTRAL IOWA

CITY           SKY/WX    TMP DP  RH WIND       PRES   REMARKS
DAVENPORT      PTSUNNY   69  61  75 VRB3      29.92R
IOWA CITY      CLOUDY    70  59  68 S5        29.93R
MT. PLEASANT * PTSUNNY   77  66  69 SE8       29.92R
MUSCATINE *    CLOUDY    75  61  60 S8        29.91S
QUAD CITIES    CLOUDY    73  63  70 NW5       29.92R
$$

IAZ062-063-075>077-085>089-095>099-261600-
   SOUTHEAST IOWA

CITY           SKY/WX    TMP DP  RH WIND       PRES   REMARKS
BURLINGTON     PTSUNNY   74  66  76 S7        29.92R
FAIRFIELD *      N/A    N/A N/A N/A MISG        N/A
FORT MADISON * PTSUNNY   73  66  78 S6        29.93S
KEOKUK *       CLOUDY    75  66  73 SE6       29.92R
OSKALOOSA *      N/A     70  61  73 E8        29.92R
OTTUMWA        MOSUNNY   70  61  73 E10       29.91R
WASHINGTON *   SUNNY     72  70  94 SE7       29.93R
$$

ABBREVIATIONS USED IN REMARKS
   TC - TEMPERATURES IN CELSIUS
  WCI - WIND CHILL INDEX
   HX - HEAT INDEX
  VSB - VISIBILITY
$$





USA.gov is the U.S. government's official web portal to all federal, state and local government web resources and services.